Powrót do katalogu

COSMOS 1823

AktywnyNawigacjaLEO
NORAD 17535·PAYLOAD·🇷🇺 Russia

Wystrzelony Feb 20, 1987 z Plesetsk Cosmodrome

Loading…

Następne Przeloty (najbliższe 24 godziny)

TLE

ŚwieżeSource: Space-Track

Epoka: Sep 14, 2026, 13:38 UTC

1 17535U 87020A   26257.56852421 -.00000019  00000-0 -13616-4 0  9996
2 17535  73.5996 282.9948 0027368 119.4907  48.9092 12.41381418792958

Śledź COSMOS 1823 w czasie rzeczywistym z AllMySat

Download on the App Store